CW0630 Weather Reports


time (UTC)temp
C
wind
direction
speed
KPH
gust
KPH
rain 1hr
cm
rain 24hr
cm
rain mn
cm
humidity
%
barometer
mb
20260901141033 31 175 0.0 0.0 0.00 0.00 0.00 69 1018.0
20260901131019 28 205 0.0 0.0 0.00 0.00 0.00 75 1018.2
20260901121039 25 190 0.0 0.0 0.00 0.00 0.00 91 1018.2
20260901111046 23 189 0.0 0.0 0.00 0.00 0.00 93 1017.8
20260901101047 23 189 0.0 0.0 0.00 0.00 0.00 93 1017.7
20260901091018 23 174 0.0 0.0 0.00 0.00 0.00 92 1017.7
20260901081014 23 173 0.0 0.0 0.00 0.00 0.00 92 1017.7
20260901071025 23 173 0.0 0.0 0.00 0.00 0.00 91 1018.0
20260901061019 23 173 0.0 0.0 0.00 0.00 0.00 91 1018.4
20260901051029 24 173 0.0 0.0 0.00 0.00 0.00 88 1018.8
20260901041026 25 173 0.0 0.0 0.00 0.00 0.00 83 1018.8
20260901031020 26 159 3.2 3.2 0.00 0.00 0.00 81 1018.7
20260901021015 27 126 0.0 4.8 0.00 0.00 0.00 77 1018.9
20260901011024 27 63 0.0 1.6 0.00 0.00 0.00 74 1018.7
20260901001015 28 355 0.0 0.0 0.00 0.00 0.00 73 1018.3
20260831231011 28 360 3.2 3.2 0.00 0.00 0.00 71 1018.2
20260831221026 30 355 0.0 3.2 0.00 0.00 0.00 64 1018.2
20260831211051 32 67 3.2 3.2 0.00 0.00 0.00 55 1017.8
20260831201020 32 360 8.0 9.7 0.00 0.00 0.00 55 1018.0
20260831191019 32 15 12.9 12.9 0.00 0.00 0.00 58 1018.3
20260831181026 33 37 6.4 6.4 0.00 0.00 0.00 56 1018.8
20260831171017 33 287 0.0 1.6 0.00 0.00 0.00 64 1019.3
20260831161019 32 110 0.0 0.0 0.00 0.00 0.00 62 1019.7
20260831151026 30 101 0.0 3.2 0.00 0.00 0.00 68 1019.8